User: anonymous   Login
Location: Oshawa
(43.9000°N, 78.8670°W)
Time: 13:28:59
(UTC-04:00)
Language:

Cosmos 1707 Rocket - Orbit

View from above orbital plane
View from above orbital plane
View from above satellite
View from above satellite

Ground track
Ground track

The orbit data is extracted from the following two-line orbital elements,

1 16327U 85113B   17114.65785753 +.00000171 +00000-0 +17850-4 0  9991
2 16327 082.5326 142.4522 0019568 160.6033 337.2322 14.83351856672792
Epoch (UTC): 24 April 2017 15:47:18
Eccentricity: 0.0019568
inclination: 82.5326°
perigee height: 605 km
apogee height: 632 km
right ascension of ascending node: 142.4522°
argument of perigee: 160.6033°
revolutions per day: 14.83351856
mean anomaly at epoch: 337.2322°
orbit number at epoch: 67279

The dashed part of the orbit path shows where the satellite is in the earth's shadow,  

DLR